Track DRAGON ENDURANCE 4 now! 10-day predictions DRAGON ENDURANCE 4 is classified as:
1 63204U 25049A 25118.69904601 .00018272 00000-0 33462-3 0 9998 2 63204 51.6381 192.1629 0002672 81.2921 56.6448 15.49375691 6257